This demonstration page uses our WeatherBlox Daily Observations layout. Learn more.

Left ArrowRight Arrow

41.55636, -103.73856

Hourly Observations for June 12, 2021

Temp ( °F °C ) Dew Point ( °F °C ) Humidity (%) Winds ( mph kmh ) Pressure ( in mb ) Visibility ( mi km ) Precip ( " mm )
12:58 am 00:58 Clear 64 17.6 30 -1.1 28 28 S 26 43 29.97 1015 10 16 N/A
1:58 am 01:58 Clear 64 17.9 31 -0.6 29 29 SSW 18 30 29.98 1015 10 16 N/A
2:58 am 02:58 Clear 54 12.4 34 1.3 47 47 E 8 13 30.02 1017 10 16 N/A
3:58 am 03:58 Clear 56 13.4 35 1.7 45 45 E 9 15 30.01 1016 10 16 N/A
4:58 am 04:58 Clear 57 13.8 36 2 45 45 N N/A 30.01 1016 10 16 N/A
5:58 am 05:58 Sunny 53 11.8 37 2.5 53 53 N N/A 30.04 1017 10 16 N/A
6:58 am 06:58 Sunny 62 16.5 39 3.9 43 43 SSW 20 31 30.01 1016 10 16 N/A
7:58 am 07:58 Sunny 67 19.5 41 5.2 39 39 SSW 26 43 29.99 1016 10 16 N/A
8:58 am 08:58 Sunny 72 22 46 7.6 40 40 SSW 23 37 30.00 1016 10 16 N/A
9:58 am 09:58 Sunny 77 25.1 45 7 31 31 SSW 20 31 30.01 1016 10 16 N/A
10:58 am 10:58 Sunny 81 27.2 44 6.7 27 27 SSW 15 24 30.00 1016 10 16 N/A
11:58 am 11:58 Sunny 83 28.2 44 6.9 26 26 S 12 19 29.97 1015 10 16 N/A
12:58 pm 12:58 Sunny 85 29.4 43 6.3 23 23 S 16 26 29.95 1014 10 16 N/A
1:58 pm 13:58 Sunny 87 30.3 46 7.5 24 24 S 15 24 29.93 1014 10 16 N/A
2:58 pm 14:58 Sunny 87 30.6 47 8.3 25 25 SSE 17 28 29.94 1014 10 16 N/A
3:58 pm 15:58 Sunny 88 31 47 8.4 24 24 S 17 28 29.92 1013 10 16 N/A
4:58 pm 16:58 Sunny 87 30.5 47 8.6 25 25 S 22 35 29.91 1013 10 16 N/A
5:58 pm 17:58 Sunny 85 29.6 48 9.1 28 28 S 18 30 29.91 1013 10 16 N/A
6:58 pm 18:58 Sunny 83 28.4 51 10.6 33 33 SSE 14 22 29.91 1013 10 16 N/A
7:58 pm 19:58 Sunny 79 26.1 52 11.3 40 40 SSE 15 24 29.92 1013 10 16 N/A
8:58 pm 20:58 Clear 74 23.6 53 11.9 48 48 S 20 31 29.92 1013 10 16 N/A
9:58 pm 21:58 Clear 73 22.8 57 13.8 57 57 SSE 24 39 29.93 1013 10 16 N/A
10:58 pm 22:58 Clear 72 22 58 14.5 63 63 S 29 46 29.92 1013 10 16 N/A
11:58 pm 23:58 Clear 69 20.8 58 14.7 68 68 S 23 37 29.92 1013 10 16 N/A

Powered by AerisWeather